Watsonville, CA

8:08 PM PDT on October 23, 2017 (GMT -0700)
Watsonville Municipal

Weather History for KWVI - November, 2011

Change the Weather History Date:

Wednesday, November 30, 2011

  Actual Average Record
Temperature  
Mean Temperature 53 °F 51 °F  
Max Temperature 68 °F 62 °F 71 °F (2008)
Min Temperature 38 °F 41 °F 29 °F (2004)
Degree Days  
Heating Degree Days 12    
Month to date heating degree days 336  
Since 1 July heating degree days 652  
Cooling Degree Days 0    
Month to date cooling degree days 0  
Year to date cooling degree days 111  
Growing Degree Days 4 (Base 50)    
Moisture  
Dew Point 35 °F    
Average Humidity 56    
Maximum Humidity 93    
Minimum Humidity 18    
Precipitation  
Precipitation 0.00 in - 2.07 in (2012)
Month to date precipitation 2.19  
Year to date precipitation 22.42  
Since 1 July precipitation 4.24  
Sea Level Pressure  
Sea Level Pressure 30.14 in    
Wind  
Wind Speed 8 mph (NNW)    
Max Wind Speed 24 mph    
Max Gust Speed 43 mph    
Visibility 7 miles    
Events      
T = Trace of Precipitation, MM = Missing Value Source: NWS Daily Summary

Daily Weather History Graph

Daily Weather History Graph

Search for Another Location

Airport or City:

Trip Planner

Search our weather history database for the weather conditions in past years. The results will help you decide how hot, cold, wet, or windy it might be!

Date:

Astronomy

Nov. 30, 2011 Rise Set
Actual Time 7:00 AM PST 4:50 PM PST
Civil Twilight 6:32 AM PST 5:19 PM PST
Nautical Twilight 5:59 AM PST 5:51 PM PST
Astronomical Twilight 5:28 AM PST 6:22 PM PST
Moon 11:25 AM PST (11/30) 10:48 PM PST (11/30)
Length of Visible Light 10h 47m
Length of Day
9h 50m
Waxing Crescent, 34% of the Moon is Illuminated
Nov 30
Waxing Crescent
Dec 2
First Quarter
Dec 10
Full
Dec 17
Last Quarter
Dec 24
New

Hourly Weather History & Observations

Time (PST) Temp. Windchill Dew Point Humidity Pressure Visibility Wind Dir Wind Speed Gust Speed Precip Events Conditions
12:53 AM 46.0 °F - 43.0 °F 89% 30.17 in 10.0 mi Calm Calm - N/A   Clear
1:53 AM 46.0 °F - 43.0 °F 89% 30.17 in 10.0 mi Calm Calm - N/A   Clear
2:53 AM 41.0 °F - 39.0 °F 93% 30.17 in 6.0 mi Calm Calm - N/A   Clear
3:53 AM 43.0 °F - 39.9 °F 89% 30.15 in 9.0 mi Calm Calm - N/A   Clear
4:53 AM 42.1 °F - 39.0 °F 89% 30.16 in 10.0 mi Calm Calm - N/A   Clear
5:53 AM 42.1 °F - 39.0 °F 89% 30.16 in 6.0 mi Calm Calm - 0.01 in   Clear
6:11 AM 41.0 °F - 37.4 °F 87% 30.16 in 1.8 mi Calm Calm - N/A   Clear
6:24 AM 41.0 °F - 39.2 °F 93% 30.16 in 3.0 mi Calm Calm - N/A   Clear
6:50 AM 39.2 °F - 35.6 °F 87% 30.16 in 4.0 mi Calm Calm - N/A   Scattered Clouds
6:53 AM 39.9 °F - 37.9 °F 93% 30.16 in 5.0 mi Calm Calm - N/A   Mostly Cloudy
7:03 AM 39.2 °F - 37.4 °F 93% 30.16 in 1.8 mi Calm Calm - N/A   Mostly Cloudy
7:12 AM 41.0 °F - 37.4 °F 87% 30.16 in 0.8 mi Calm Calm - N/A   Mist
7:26 AM 39.2 °F 37.0 °F 37.4 °F 93% 30.17 in 0.8 mi West 3.5 mph - N/A   Mist
7:46 AM 42.8 °F - 41.0 °F 93% 30.16 in 1.0 mi Calm Calm - N/A   Mist
7:49 AM 42.8 °F 41.1 °F 41.0 °F 93% 30.16 in 3.0 mi Variable 3.5 mph - N/A   Mostly Cloudy
7:53 AM 42.1 °F 40.2 °F 39.9 °F 92% 30.17 in 4.0 mi North 3.5 mph - N/A   Scattered Clouds
8:53 AM 48.9 °F - 44.1 °F 83% 30.17 in 8.0 mi WNW 3.5 mph - N/A   Clear
9:53 AM 54.0 °F - 46.0 °F 75% 30.17 in 10.0 mi Calm Calm - N/A   Clear
10:53 AM 64.0 °F - 41.0 °F 43% 30.15 in 10.0 mi Variable 3.5 mph - N/A   Clear
11:53 AM 64.9 °F - 32.0 °F 29% 30.15 in 10.0 mi Variable 4.6 mph 18.4 mph N/A   Clear
12:53 PM 66.0 °F - 33.1 °F 29% 30.12 in 10.0 mi Variable 5.8 mph - N/A   Clear
1:53 PM 68.0 °F - 28.0 °F 22% 30.09 in 10.0 mi NW 12.7 mph 16.1 mph N/A   Clear
3:53 PM 66.9 °F - 21.9 °F 18% 30.06 in 10.0 mi North 13.8 mph 31.1 mph N/A   Clear
4:53 PM 64.0 °F - 23.0 °F 21% 30.06 in 10.0 mi NNW 17.3 mph 31.1 mph N/A   Clear
5:53 PM 63.0 °F - 25.0 °F 24% 30.07 in 10.0 mi North 12.7 mph 31.1 mph N/A   Clear
6:53 PM 63.0 °F - 26.1 °F 25% 30.08 in 10.0 mi North 20.7 mph 32.2 mph N/A   Clear
8:53 PM 62.1 °F - 24.1 °F 23% 30.09 in 10.0 mi North 17.3 mph 32.2 mph N/A   Clear
9:53 PM 62.1 °F - 21.9 °F 21% 30.11 in 10.0 mi North 18.4 mph 29.9 mph N/A   Clear
11:53 PM 60.1 °F - 21.0 °F 22% 30.11 in 10.0 mi North 13.8 mph 27.6 mph N/A   Clear